Location: ???????
(55.3754°N, 39.3545°E)
Time: 09:51:18
(UTC+00:00)

Okean 2 Rocket - Pass Details

Date: 14 April 2026
Orbit: 612 x 633 km, 82.5° (Epoch: 19 May)

Event Time Altitude Azimuth Distance (km) Brightness Sun altitude
Exits shadow 21:37:28 54° 286° (WNW) 761 3.5 -24.9°
Maximum altitude 21:37:28 54° 287° (WNW) 761 3.5 -24.9°
Drops below altitude 10° 21:41:51 10° 5° (N) 2,014 6.7 -24.8°
Sets 21:44:10 0° 10° (N) 2,930 7.9 -24.8°
